owner,sensor,date,latitude,longitude,vertical_datum,wind_speed,wind_to_direction,wind_speed_of_gust,qcFlag 
WAVCIS,ioos:station:WAVCIS:CSI16:1,2011-12-01T00:00:00Z,29.4012,-89.0355,10.0,5.547,342.0,,'11111222,11111222,99999999' 
WAVCIS,ioos:station:WAVCIS:CSI16:1,2011-12-01T01:00:00Z,29.4012,-89.0355,10.0,4.87,349.0,,'11111222,11111222,99999999' 
WAVCIS,ioos:station:WAVCIS:CSI16:1,2011-12-01T02:00:00Z,29.4012,-89.0355,10.0,4.598,352.0,,'11111222,11111222,99999999' 
WAVCIS,ioos:station:WAVCIS:CSI16:1,2011-12-01T03:00:00Z,29.4012,-89.0355,10.0,4.952,0.0,,'11111222,11111222,99999999' 
WAVCIS,ioos:station:WAVCIS:CSI16:1,2011-12-01T04:00:00Z,29.4012,-89.0355,10.0,4.412,19.0,,'11111222,11111222,99999999' 
WAVCIS,ioos:station:WAVCIS:CSI16:1,2011-12-01T05:00:00Z,29.4012,-89.0355,10.0,4.352,16.0,,'11111222,11111222,99999999' 
WAVCIS,ioos:station:WAVCIS:CSI16:1,2011-12-01T06:00:00Z,29.4012,-89.0355,10.0,4.33,29.0,,'11111222,11111222,99999999' 
WAVCIS,ioos:station:WAVCIS:CSI16:1,2011-12-01T07:00:00Z,29.4012,-89.0355,10.0,4.139,34.0,,'11111222,11111222,99999999' 
WAVCIS,ioos:station:WAVCIS:CSI16:1,2011-12-01T08:00:00Z,29.4012,-89.0355,10.0,3.689,38.0,,'11111222,11111222,99999999' 
WAVCIS,ioos:station:WAVCIS:CSI16:1,2011-12-01T09:00:00Z,29.4012,-89.0355,10.0,3.774,50.0,,'11111222,11111222,99999999' 
WAVCIS,ioos:station:WAVCIS:CSI16:1,2011-12-01T10:00:00Z,29.4012,-89.0355,10.0,3.856,58.0,,'11111222,11111222,99999999' 
WAVCIS,ioos:station:WAVCIS:CSI16:1,2011-12-01T11:00:00Z,29.4012,-89.0355,10.0,4.1,51.0,,'11111222,11111222,99999999' 
WAVCIS,ioos:station:WAVCIS:CSI16:1,2011-12-01T12:00:00Z,29.4012,-89.0355,10.0,4.157,52.0,,'11111222,11111222,99999999' 
WAVCIS,ioos:station:WAVCIS:CSI16:1,2011-12-01T13:00:00Z,29.4012,-89.0355,10.0,4.399,48.0,,'11111222,11111222,99999999' 
WAVCIS,ioos:station:WAVCIS:CSI16:1,2011-12-01T14:00:00Z,29.4012,-89.0355,10.0,4.776,53.0,,'11111222,11111222,99999999' 
WAVCIS,ioos:station:WAVCIS:CSI16:1,2011-12-01T15:00:00Z,29.4012,-89.0355,10.0,4.572,58.0,,'11111222,11111222,99999999' 
WAVCIS,ioos:station:WAVCIS:CSI16:1,2011-12-01T16:00:00Z,29.4012,-89.0355,10.0,5.725,58.0,,'11111222,11111222,99999999' 
WAVCIS,ioos:station:WAVCIS:CSI16:1,2011-12-01T17:00:00Z,29.4012,-89.0355,10.0,5.938,57.0,,'11111222,11111222,99999999' 
WAVCIS,ioos:station:WAVCIS:CSI16:1,2011-12-01T18:00:00Z,29.4012,-89.0355,10.0,5.423,62.0,,'11111222,11111222,99999999' 
WAVCIS,ioos:station:WAVCIS:CSI16:1,2011-12-01T19:00:00Z,29.4012,-89.0355,10.0,3.907,57.0,,'11111222,11111222,99999999' 
WAVCIS,ioos:station:WAVCIS:CSI16:1,2011-12-01T20:00:00Z,29.4012,-89.0355,10.0,2.974,48.0,,'11111222,11111222,99999999' 
WAVCIS,ioos:station:WAVCIS:CSI16:1,2011-12-01T21:00:00Z,29.4012,-89.0355,10.0,3.082,42.0,,'11111222,11111222,99999999' 
WAVCIS,ioos:station:WAVCIS:CSI16:1,2011-12-01T22:00:00Z,29.4012,-89.0355,10.0,4.192,26.0,,'11111222,11111222,99999999' 
WAVCIS,ioos:station:WAVCIS:CSI16:1,2011-12-01T23:00:00Z,29.4012,-89.0355,10.0,3.164,46.0,,'11111222,11111222,99999999' 
WAVCIS,ioos:station:WAVCIS:CSI16:1,2011-12-02T00:00:00Z,29.4012,-89.0355,10.0,5.458,54.0,,'11111222,11111222,99999999' 
WAVCIS,ioos:station:WAVCIS:CSI16:1,2011-12-02T01:00:00Z,29.4012,-89.0355,10.0,5.013,59.0,,'11111222,11111222,99999999' 
WAVCIS,ioos:station:WAVCIS:CSI16:1,2011-12-02T02:00:00Z,29.4012,-89.0355,10.0,4.544,64.0,,'11111222,11111222,99999999' 
WAVCIS,ioos:station:WAVCIS:CSI16:1,2011-12-02T03:00:00Z,29.4012,-89.0355,10.0,4.188,77.0,,'11111222,11111222,99999999' 
WAVCIS,ioos:station:WAVCIS:CSI16:1,2011-12-02T04:00:00Z,29.4012,-89.0355,10.0,4.361,67.0,,'11111222,11111222,99999999' 
WAVCIS,ioos:station:WAVCIS:CSI16:1,2011-12-02T05:00:00Z,29.4012,-89.0355,10.0,4.947,79.0,,'11111222,11111222,99999999' 
WAVCIS,ioos:station:WAVCIS:CSI16:1,2011-12-02T06:00:00Z,29.4012,-89.0355,10.0,3.559,73.0,,'11111222,11111222,99999999' 
WAVCIS,ioos:station:WAVCIS:CSI16:1,2011-12-02T07:00:00Z,29.4012,-89.0355,10.0,6.722,98.0,,'11111222,11111222,99999999' 
WAVCIS,ioos:station:WAVCIS:CSI16:1,2011-12-02T08:00:00Z,29.4012,-89.0355,10.0,6.815,102.0,,'11111222,11111222,99999999' 
WAVCIS,ioos:station:WAVCIS:CSI16:1,2011-12-02T09:00:00Z,29.4012,-89.0355,10.0,5.745,107.0,,'11111222,11111222,99999999' 
WAVCIS,ioos:station:WAVCIS:CSI16:1,2011-12-02T10:00:00Z,29.4012,-89.0355,10.0,4.209,108.0,,'11111222,11111222,99999999' 
WAVCIS,ioos:station:WAVCIS:CSI16:1,2011-12-02T11:00:00Z,29.4012,-89.0355,10.0,4.852,98.0,,'11111222,11111222,99999999' 
WAVCIS,ioos:station:WAVCIS:CSI16:1,2011-12-02T12:00:00Z,29.4012,-89.0355,10.0,4.573,96.0,,'11111222,11111222,99999999' 
WAVCIS,ioos:station:WAVCIS:CSI16:1,2011-12-02T13:00:00Z,29.4012,-89.0355,10.0,4.632,93.0,,'11111222,11111222,99999999' 
WAVCIS,ioos:station:WAVCIS:CSI16:1,2011-12-02T14:00:00Z,29.4012,-89.0355,10.0,3.041,71.0,,'11111222,11111222,99999999' 
WAVCIS,ioos:station:WAVCIS:CSI16:1,2011-12-02T15:00:00Z,29.4012,-89.0355,10.0,5.283,31.0,,'11111222,11111222,99999999' 
WAVCIS,ioos:station:WAVCIS:CSI16:1,2011-12-02T16:00:00Z,29.4012,-89.0355,10.0,6.606,27.0,,'11111222,11111222,99999999' 
WAVCIS,ioos:station:WAVCIS:CSI16:1,2011-12-02T17:00:00Z,29.4012,-89.0355,10.0,4.653,36.0,,'11111222,11111222,99999999' 
WAVCIS,ioos:station:WAVCIS:CSI16:1,2011-12-02T18:00:00Z,29.4012,-89.0355,10.0,5.801,32.0,,'11111222,11111222,99999999' 
WAVCIS,ioos:station:WAVCIS:CSI16:1,2011-12-02T19:00:00Z,29.4012,-89.0355,10.0,4.764,41.0,,'11111222,11111222,99999999' 
WAVCIS,ioos:station:WAVCIS:CSI16:1,2011-12-02T20:00:00Z,29.4012,-89.0355,10.0,4.408,44.0,,'11111222,11111222,99999999' 
WAVCIS,ioos:station:WAVCIS:CSI16:1,2011-12-02T21:00:00Z,29.4012,-89.0355,10.0,4.981,46.0,,'11111222,11111222,99999999' 
WAVCIS,ioos:station:WAVCIS:CSI16:1,2011-12-02T22:00:00Z,29.4012,-89.0355,10.0,8.69,54.0,,'11111222,11111222,99999999' 
WAVCIS,ioos:station:WAVCIS:CSI16:1,2011-12-02T23:00:00Z,29.4012,-89.0355,10.0,7.22,62.0,,'11111222,11111222,99999999' 
WAVCIS,ioos:station:WAVCIS:CSI16:1,2011-12-03T00:00:00Z,29.4012,-89.0355,10.0,4.945,69.0,,'11111222,11111222,99999999' 
WAVCIS,ioos:station:WAVCIS:CSI16:1,2011-12-03T01:00:00Z,29.4012,-89.0355,10.0,3.453,76.0,,'11111222,11111222,99999999' 
WAVCIS,ioos:station:WAVCIS:CSI16:1,2011-12-03T02:00:00Z,29.4012,-89.0355,10.0,7.02,84.0,,'11111222,11111222,99999999' 
WAVCIS,ioos:station:WAVCIS:CSI16:1,2011-12-03T03:00:00Z,29.4012,-89.0355,10.0,9.67,103.0,,'11111222,11111222,99999999' 
WAVCIS,ioos:station:WAVCIS:CSI16:1,2011-12-03T04:00:00Z,29.4012,-89.0355,10.0,9.57,110.0,,'11111222,11111222,99999999' 
WAVCIS,ioos:station:WAVCIS:CSI16:1,2011-12-03T05:00:00Z,29.4012,-89.0355,10.0,9.12,110.0,,'11111222,11111222,99999999' 
WAVCIS,ioos:station:WAVCIS:CSI16:1,2011-12-03T06:00:00Z,29.4012,-89.0355,10.0,9.64,120.0,,'11111222,11111222,99999999' 
WAVCIS,ioos:station:WAVCIS:CSI16:1,2011-12-03T07:00:00Z,29.4012,-89.0355,10.0,10.54,120.0,,'11111222,11111222,99999999' 
WAVCIS,ioos:station:WAVCIS:CSI16:1,2011-12-03T08:00:00Z,29.4012,-89.0355,10.0,9.18,126.0,,'11111222,11111222,99999999' 
WAVCIS,ioos:station:WAVCIS:CSI16:1,2011-12-03T09:00:00Z,29.4012,-89.0355,10.0,8.82,128.0,,'11111222,11111222,99999999' 
WAVCIS,ioos:station:WAVCIS:CSI16:1,2011-12-03T10:00:00Z,29.4012,-89.0355,10.0,6.747,116.0,,'11111222,11111222,99999999' 
WAVCIS,ioos:station:WAVCIS:CSI16:1,2011-12-03T11:00:00Z,29.4012,-89.0355,10.0,7.37,128.0,,'11111222,11111222,99999999' 
WAVCIS,ioos:station:WAVCIS:CSI16:1,2011-12-03T12:00:00Z,29.4012,-89.0355,10.0,7.22,132.0,,'11111222,11111222,99999999' 
WAVCIS,ioos:station:WAVCIS:CSI16:1,2011-12-03T13:00:00Z,29.4012,-89.0355,10.0,9.93,132.0,,'11111222,11111222,99999999' 
WAVCIS,ioos:station:WAVCIS:CSI16:1,2011-12-03T14:00:00Z,29.4012,-89.0355,10.0,7.84,105.0,,'11111222,11111222,99999999' 
WAVCIS,ioos:station:WAVCIS:CSI16:1,2011-12-03T15:00:00Z,29.4012,-89.0355,10.0,8.41,117.0,,'11111222,11111222,99999999' 
WAVCIS,ioos:station:WAVCIS:CSI16:1,2011-12-03T16:00:00Z,29.4012,-89.0355,10.0,7.89,125.0,,'11111222,11111222,99999999' 
WAVCIS,ioos:station:WAVCIS:CSI16:1,2011-12-03T17:00:00Z,29.4012,-89.0355,10.0,8.49,126.0,,'11111222,11111222,99999999' 
WAVCIS,ioos:station:WAVCIS:CSI16:1,2011-12-03T18:00:00Z,29.4012,-89.0355,10.0,9.21,120.0,,'11111222,11111222,99999999' 
WAVCIS,ioos:station:WAVCIS:CSI16:1,2011-12-03T19:00:00Z,29.4012,-89.0355,10.0,9.67,125.0,,'11111222,11111222,99999999' 
WAVCIS,ioos:station:WAVCIS:CSI16:1,2011-12-03T20:00:00Z,29.4012,-89.0355,10.0,8.23,124.0,,'11111222,11111222,99999999' 
WAVCIS,ioos:station:WAVCIS:CSI16:1,2011-12-03T21:00:00Z,29.4012,-89.0355,10.0,9.79,123.0,,'11111222,11111222,99999999' 
WAVCIS,ioos:station:WAVCIS:CSI16:1,2011-12-03T22:00:00Z,29.4012,-89.0355,10.0,9.78,122.0,,'11111222,11111222,99999999' 
WAVCIS,ioos:station:WAVCIS:CSI16:1,2011-12-03T23:00:00Z,29.4012,-89.0355,10.0,9.92,123.0,,'11111222,11111222,99999999' 
WAVCIS,ioos:station:WAVCIS:CSI16:1,2011-12-04T00:00:00Z,29.4012,-89.0355,10.0,9.95,120.0,,'11111222,11111222,99999999' 
WAVCIS,ioos:station:WAVCIS:CSI16:1,2011-12-04T01:00:00Z,29.4012,-89.0355,10.0,11.0,123.0,,'11111222,11111222,99999999' 
WAVCIS,ioos:station:WAVCIS:CSI16:1,2011-12-04T02:00:00Z,29.4012,-89.0355,10.0,11.74,122.0,,'11111222,11111222,99999999' 
WAVCIS,ioos:station:WAVCIS:CSI16:1,2011-12-04T03:00:00Z,29.4012,-89.0355,10.0,11.71,121.0,,'11111222,11111222,99999999' 
WAVCIS,ioos:station:WAVCIS:CSI16:1,2011-12-04T04:00:00Z,29.4012,-89.0355,10.0,12.08,128.0,,'11111222,11111222,99999999' 
WAVCIS,ioos:station:WAVCIS:CSI16:1,2011-12-04T05:00:00Z,29.4012,-89.0355,10.0,11.59,128.0,,'11111222,11111222,99999999' 
WAVCIS,ioos:station:WAVCIS:CSI16:1,2011-12-04T06:00:00Z,29.4012,-89.0355,10.0,11.54,131.0,,'11111222,11111222,99999999' 
WAVCIS,ioos:station:WAVCIS:CSI16:1,2011-12-04T07:00:00Z,29.4012,-89.0355,10.0,10.59,130.0,,'11111222,11111222,99999999' 
WAVCIS,ioos:station:WAVCIS:CSI16:1,2011-12-04T08:00:00Z,29.4012,-89.0355,10.0,10.62,129.0,,'11111222,11111222,99999999' 
WAVCIS,ioos:station:WAVCIS:CSI16:1,2011-12-04T09:00:00Z,29.4012,-89.0355,10.0,10.13,139.0,,'11111222,11111222,99999999' 
WAVCIS,ioos:station:WAVCIS:CSI16:1,2011-12-04T10:00:00Z,29.4012,-89.0355,10.0,8.89,134.0,,'11111222,11111222,99999999' 
WAVCIS,ioos:station:WAVCIS:CSI16:1,2011-12-04T11:00:00Z,29.4012,-89.0355,10.0,8.56,130.0,,'11111222,11111222,99999999' 
WAVCIS,ioos:station:WAVCIS:CSI16:1,2011-12-04T12:00:00Z,29.4012,-89.0355,10.0,8.13,128.0,,'11111222,11111222,99999999' 
WAVCIS,ioos:station:WAVCIS:CSI16:1,2011-12-04T13:00:00Z,29.4012,-89.0355,10.0,7.2,118.0,,'11111222,11111222,99999999' 
WAVCIS,ioos:station:WAVCIS:CSI16:1,2011-12-04T14:00:00Z,29.4012,-89.0355,10.0,9.49,123.0,,'11111222,11111222,99999999' 
WAVCIS,ioos:station:WAVCIS:CSI16:1,2011-12-04T15:00:00Z,29.4012,-89.0355,10.0,10.43,130.0,,'11111222,11111222,99999999' 
WAVCIS,ioos:station:WAVCIS:CSI16:1,2011-12-04T16:00:00Z,29.4012,-89.0355,10.0,9.13,129.0,,'11111222,11111222,99999999' 
WAVCIS,ioos:station:WAVCIS:CSI16:1,2011-12-04T17:00:00Z,29.4012,-89.0355,10.0,9.12,133.0,,'11111222,11111222,99999999' 
WAVCIS,ioos:station:WAVCIS:CSI16:1,2011-12-04T18:00:00Z,29.4012,-89.0355,10.0,11.1,155.0,,'11111222,11111222,99999999' 
WAVCIS,ioos:station:WAVCIS:CSI16:1,2011-12-04T19:00:00Z,29.4012,-89.0355,10.0,8.63,157.0,,'11111222,11111222,99999999' 
WAVCIS,ioos:station:WAVCIS:CSI16:1,2011-12-04T20:00:00Z,29.4012,-89.0355,10.0,5.459,141.0,,'11111222,11111222,99999999' 
WAVCIS,ioos:station:WAVCIS:CSI16:1,2011-12-04T21:00:00Z,29.4012,-89.0355,10.0,3.191,194.0,,'11111222,11111222,99999999' 
WAVCIS,ioos:station:WAVCIS:CSI16:1,2011-12-04T22:00:00Z,29.4012,-89.0355,10.0,2.492,169.0,,'11111222,11111222,99999999' 
WAVCIS,ioos:station:WAVCIS:CSI16:1,2011-12-04T23:00:00Z,29.4012,-89.0355,10.0,9.09,130.0,,'11111222,11111222,99999999' 
WAVCIS,ioos:station:WAVCIS:CSI16:1,2011-12-05T00:00:00Z,29.4012,-89.0355,10.0,9.62,130.0,,'11111222,11111222,99999999' 
WAVCIS,ioos:station:WAVCIS:CSI16:1,2011-12-05T01:00:00Z,29.4012,-89.0355,10.0,8.92,130.0,,'11111222,11111222,99999999' 
WAVCIS,ioos:station:WAVCIS:CSI16:1,2011-12-05T02:00:00Z,29.4012,-89.0355,10.0,8.9,131.0,,'11111222,11111222,99999999' 
WAVCIS,ioos:station:WAVCIS:CSI16:1,2011-12-05T03:00:00Z,29.4012,-89.0355,10.0,8.93,133.0,,'11111222,11111222,99999999' 
WAVCIS,ioos:station:WAVCIS:CSI16:1,2011-12-05T04:00:00Z,29.4012,-89.0355,10.0,9.03,133.0,,'11111222,11111222,99999999' 
WAVCIS,ioos:station:WAVCIS:CSI16:1,2011-12-05T05:00:00Z,29.4012,-89.0355,10.0,9.72,135.0,,'11111222,11111222,99999999' 
WAVCIS,ioos:station:WAVCIS:CSI16:1,2011-12-05T06:00:00Z,29.4012,-89.0355,10.0,10.01,133.0,,'11111222,11111222,99999999' 
WAVCIS,ioos:station:WAVCIS:CSI16:1,2011-12-05T07:00:00Z,29.4012,-89.0355,10.0,9.34,146.0,,'11111222,11111222,99999999' 
WAVCIS,ioos:station:WAVCIS:CSI16:1,2011-12-05T08:00:00Z,29.4012,-89.0355,10.0,9.4,139.0,,'11111222,11111222,99999999' 
WAVCIS,ioos:station:WAVCIS:CSI16:1,2011-12-05T09:00:00Z,29.4012,-89.0355,10.0,7.89,141.0,,'11111222,11111222,99999999' 
WAVCIS,ioos:station:WAVCIS:CSI16:1,2011-12-05T10:00:00Z,29.4012,-89.0355,10.0,7.68,141.0,,'11111222,11111222,99999999' 
WAVCIS,ioos:station:WAVCIS:CSI16:1,2011-12-05T11:00:00Z,29.4012,-89.0355,10.0,9.32,146.0,,'11111222,11111222,99999999' 
WAVCIS,ioos:station:WAVCIS:CSI16:1,2011-12-05T12:00:00Z,29.4012,-89.0355,10.0,9.39,148.0,,'11111222,11111222,99999999' 
WAVCIS,ioos:station:WAVCIS:CSI16:1,2011-12-05T13:00:00Z,29.4012,-89.0355,10.0,8.41,150.0,,'11111222,11111222,99999999' 
WAVCIS,ioos:station:WAVCIS:CSI16:1,2011-12-05T14:00:00Z,29.4012,-89.0355,10.0,8.12,149.0,,'11111222,11111222,99999999' 
WAVCIS,ioos:station:WAVCIS:CSI16:1,2011-12-05T15:00:00Z,29.4012,-89.0355,10.0,9.3,155.0,,'11111222,11111222,99999999' 
WAVCIS,ioos:station:WAVCIS:CSI16:1,2011-12-05T16:00:00Z,29.4012,-89.0355,10.0,7.24,159.0,,'11111222,11111222,99999999' 
WAVCIS,ioos:station:WAVCIS:CSI16:1,2011-12-05T17:00:00Z,29.4012,-89.0355,10.0,6.79,163.0,,'11111222,11111222,99999999' 
WAVCIS,ioos:station:WAVCIS:CSI16:1,2011-12-05T18:00:00Z,29.4012,-89.0355,10.0,6.752,174.0,,'11111222,11111222,99999999' 
WAVCIS,ioos:station:WAVCIS:CSI16:1,2011-12-05T19:00:00Z,29.4012,-89.0355,10.0,7.34,180.0,,'11111222,11111222,99999999' 
WAVCIS,ioos:station:WAVCIS:CSI16:1,2011-12-05T20:00:00Z,29.4012,-89.0355,10.0,6.112,204.0,,'11111222,11111222,99999999' 
WAVCIS,ioos:station:WAVCIS:CSI16:1,2011-12-05T21:00:00Z,29.4012,-89.0355,10.0,5.622,188.0,,'11111222,11111222,99999999' 
WAVCIS,ioos:station:WAVCIS:CSI16:1,2011-12-05T22:00:00Z,29.4012,-89.0355,10.0,4.936,181.0,,'11111222,11111222,99999999' 
WAVCIS,ioos:station:WAVCIS:CSI16:1,2011-12-05T23:00:00Z,29.4012,-89.0355,10.0,6.307,188.0,,'11111222,11111222,99999999' 
WAVCIS,ioos:station:WAVCIS:CSI16:1,2011-12-06T00:00:00Z,29.4012,-89.0355,10.0,6.844,190.0,,'11111222,11111222,99999999' 
WAVCIS,ioos:station:WAVCIS:CSI16:1,2011-12-06T01:00:00Z,29.4012,-89.0355,10.0,6.469,182.0,,'11111222,11111222,99999999' 
WAVCIS,ioos:station:WAVCIS:CSI16:1,2011-12-06T02:00:00Z,29.4012,-89.0355,10.0,6.941,188.0,,'11111222,11111222,99999999' 
WAVCIS,ioos:station:WAVCIS:CSI16:1,2011-12-06T03:00:00Z,29.4012,-89.0355,10.0,6.158,186.0,,'11111222,11111222,99999999' 
WAVCIS,ioos:station:WAVCIS:CSI16:1,2011-12-06T04:00:00Z,29.4012,-89.0355,10.0,6.415,188.0,,'11111222,11111222,99999999' 
WAVCIS,ioos:station:WAVCIS:CSI16:1,2011-12-06T05:00:00Z,29.4012,-89.0355,10.0,6.375,201.0,,'11111222,11111222,99999999' 
WAVCIS,ioos:station:WAVCIS:CSI16:1,2011-12-06T06:00:00Z,29.4012,-89.0355,10.0,6.309,211.0,,'11111222,11111222,99999999' 
WAVCIS,ioos:station:WAVCIS:CSI16:1,2011-12-06T07:00:00Z,29.4012,-89.0355,10.0,4.608,209.0,,'11111222,11111222,99999999' 
WAVCIS,ioos:station:WAVCIS:CSI16:1,2011-12-06T08:00:00Z,29.4012,-89.0355,10.0,4.391,219.0,,'11111222,11111222,99999999' 
WAVCIS,ioos:station:WAVCIS:CSI16:1,2011-12-06T09:00:00Z,29.4012,-89.0355,10.0,3.241,181.0,,'11111222,11111222,99999999' 
WAVCIS,ioos:station:WAVCIS:CSI16:1,2011-12-06T10:00:00Z,29.4012,-89.0355,10.0,3.056,237.0,,'11111222,11111222,99999999' 
WAVCIS,ioos:station:WAVCIS:CSI16:1,2011-12-06T11:00:00Z,29.4012,-89.0355,10.0,3.757,244.0,,'11111222,11111222,99999999' 
WAVCIS,ioos:station:WAVCIS:CSI16:1,2011-12-06T12:00:00Z,29.4012,-89.0355,10.0,7.17,337.0,,'11111222,11111222,99999999' 
WAVCIS,ioos:station:WAVCIS:CSI16:1,2011-12-06T13:00:00Z,29.4012,-89.0355,10.0,4.296,338.0,,'11111222,11111222,99999999' 
WAVCIS,ioos:station:WAVCIS:CSI16:1,2011-12-06T14:00:00Z,29.4012,-89.0355,10.0,6.586,342.0,,'11111222,11111222,99999999' 
WAVCIS,ioos:station:WAVCIS:CSI16:1,2011-12-06T15:00:00Z,29.4012,-89.0355,10.0,6.887,339.0,,'11111222,11111222,99999999' 
WAVCIS,ioos:station:WAVCIS:CSI16:1,2011-12-06T16:00:00Z,29.4012,-89.0355,10.0,6.527,345.0,,'11111222,11111222,99999999' 
WAVCIS,ioos:station:WAVCIS:CSI16:1,2011-12-06T17:00:00Z,29.4012,-89.0355,10.0,4.885,359.0,,'11111222,11111222,99999999' 
WAVCIS,ioos:station:WAVCIS:CSI16:1,2011-12-06T18:00:00Z,29.4012,-89.0355,10.0,5.456,352.0,,'11111222,11111222,99999999' 
WAVCIS,ioos:station:WAVCIS:CSI16:1,2011-12-06T19:00:00Z,29.4012,-89.0355,10.0,5.077,0.0,,'11111222,11111222,99999999' 
WAVCIS,ioos:station:WAVCIS:CSI16:1,2011-12-06T20:00:00Z,29.4012,-89.0355,10.0,5.682,355.0,,'11111222,11111222,99999999' 
WAVCIS,ioos:station:WAVCIS:CSI16:1,2011-12-06T21:00:00Z,29.4012,-89.0355,10.0,6.478,333.0,,'11111222,11111222,99999999' 
WAVCIS,ioos:station:WAVCIS:CSI16:1,2011-12-06T22:00:00Z,29.4012,-89.0355,10.0,6.487,330.0,,'11111222,11111222,99999999' 
WAVCIS,ioos:station:WAVCIS:CSI16:1,2011-12-06T23:00:00Z,29.4012,-89.0355,10.0,6.79,331.0,,'11111222,11111222,99999999' 
WAVCIS,ioos:station:WAVCIS:CSI16:1,2011-12-07T00:00:00Z,29.4012,-89.0355,10.0,6.278,343.0,,'11111222,11111222,99999999' 
WAVCIS,ioos:station:WAVCIS:CSI16:1,2011-12-07T01:00:00Z,29.4012,-89.0355,10.0,5.069,346.0,,'11111222,11111222,99999999' 
WAVCIS,ioos:station:WAVCIS:CSI16:1,2011-12-07T02:00:00Z,29.4012,-89.0355,10.0,6.999,326.0,,'11111222,11111222,99999999' 
WAVCIS,ioos:station:WAVCIS:CSI16:1,2011-12-07T03:00:00Z,29.4012,-89.0355,10.0,7.5,328.0,,'11111222,11111222,99999999' 
WAVCIS,ioos:station:WAVCIS:CSI16:1,2011-12-07T04:00:00Z,29.4012,-89.0355,10.0,7.89,322.0,,'11111222,11111222,99999999' 
WAVCIS,ioos:station:WAVCIS:CSI16:1,2011-12-07T05:00:00Z,29.4012,-89.0355,10.0,7.62,314.0,,'11111222,11111222,99999999' 
WAVCIS,ioos:station:WAVCIS:CSI16:1,2011-12-07T06:00:00Z,29.4012,-89.0355,10.0,10.63,323.0,,'11111222,11111222,99999999' 
WAVCIS,ioos:station:WAVCIS:CSI16:1,2011-12-07T07:00:00Z,29.4012,-89.0355,10.0,10.09,318.0,,'11111222,11111222,99999999' 
WAVCIS,ioos:station:WAVCIS:CSI16:1,2011-12-07T08:00:00Z,29.4012,-89.0355,10.0,8.36,316.0,,'11111222,11111222,99999999' 
WAVCIS,ioos:station:WAVCIS:CSI16:1,2011-12-07T09:00:00Z,29.4012,-89.0355,10.0,9.71,310.0,,'11111222,11111222,99999999' 
WAVCIS,ioos:station:WAVCIS:CSI16:1,2011-12-07T10:00:00Z,29.4012,-89.0355,10.0,10.19,311.0,,'11111222,11111222,99999999' 
WAVCIS,ioos:station:WAVCIS:CSI16:1,2011-12-07T11:00:00Z,29.4012,-89.0355,10.0,10.82,294.0,,'11111222,11111222,99999999' 
WAVCIS,ioos:station:WAVCIS:CSI16:1,2011-12-07T12:00:00Z,29.4012,-89.0355,10.0,11.65,300.0,,'11111222,11111222,99999999' 
WAVCIS,ioos:station:WAVCIS:CSI16:1,2011-12-07T13:00:00Z,29.4012,-89.0355,10.0,10.78,302.0,,'11111222,11111222,99999999' 
WAVCIS,ioos:station:WAVCIS:CSI16:1,2011-12-07T14:00:00Z,29.4012,-89.0355,10.0,10.86,288.0,,'11111222,11111222,99999999' 
WAVCIS,ioos:station:WAVCIS:CSI16:1,2011-12-07T15:00:00Z,29.4012,-89.0355,10.0,10.97,305.0,,'11111222,11111222,99999999' 
WAVCIS,ioos:station:WAVCIS:CSI16:1,2011-12-07T16:00:00Z,29.4012,-89.0355,10.0,12.24,317.0,,'11111222,11111222,99999999' 
WAVCIS,ioos:station:WAVCIS:CSI16:1,2011-12-07T17:00:00Z,29.4012,-89.0355,10.0,10.78,321.0,,'11111222,11111222,99999999' 
WAVCIS,ioos:station:WAVCIS:CSI16:1,2011-12-07T18:00:00Z,29.4012,-89.0355,10.0,11.55,327.0,,'11111222,11111222,99999999' 
WAVCIS,ioos:station:WAVCIS:CSI16:1,2011-12-07T19:00:00Z,29.4012,-89.0355,10.0,10.05,326.0,,'11111222,11111222,99999999' 
WAVCIS,ioos:station:WAVCIS:CSI16:1,2011-12-07T20:00:00Z,29.4012,-89.0355,10.0,10.91,331.0,,'11111222,11111222,99999999' 
WAVCIS,ioos:station:WAVCIS:CSI16:1,2011-12-07T21:00:00Z,29.4012,-89.0355,10.0,11.13,332.0,,'11111222,11111222,99999999' 
WAVCIS,ioos:station:WAVCIS:CSI16:1,2011-12-07T22:00:00Z,29.4012,-89.0355,10.0,11.53,337.0,,'11111222,11111222,99999999' 
WAVCIS,ioos:station:WAVCIS:CSI16:1,2011-12-07T23:00:00Z,29.4012,-89.0355,10.0,11.64,344.0,,'11111222,11111222,99999999' 
WAVCIS,ioos:station:WAVCIS:CSI16:1,2011-12-08T00:00:00Z,29.4012,-89.0355,10.0,11.47,344.0,,'11111222,11111222,99999999' 
WAVCIS,ioos:station:WAVCIS:CSI16:1,2011-12-08T01:00:00Z,29.4012,-89.0355,10.0,12.78,346.0,,'11111222,11111222,99999999' 
WAVCIS,ioos:station:WAVCIS:CSI16:1,2011-12-08T02:00:00Z,29.4012,-89.0355,10.0,12.41,357.0,,'11111222,11111222,99999999' 
WAVCIS,ioos:station:WAVCIS:CSI16:1,2011-12-08T03:00:00Z,29.4012,-89.0355,10.0,11.93,3.0,,'11111222,11111222,99999999' 
WAVCIS,ioos:station:WAVCIS:CSI16:1,2011-12-08T04:00:00Z,29.4012,-89.0355,10.0,9.52,4.0,,'11111222,11111222,99999999' 
WAVCIS,ioos:station:WAVCIS:CSI16:1,2011-12-08T05:00:00Z,29.4012,-89.0355,10.0,8.95,8.0,,'11111222,11111222,99999999' 
WAVCIS,ioos:station:WAVCIS:CSI16:1,2011-12-08T06:00:00Z,29.4012,-89.0355,10.0,7.9,10.0,,'11111222,11111222,99999999' 
WAVCIS,ioos:station:WAVCIS:CSI16:1,2011-12-08T07:00:00Z,29.4012,-89.0355,10.0,5.501,28.0,,'11111222,11111222,99999999' 
WAVCIS,ioos:station:WAVCIS:CSI16:1,2011-12-08T08:00:00Z,29.4012,-89.0355,10.0,7.12,15.0,,'11111222,11111222,99999999' 
WAVCIS,ioos:station:WAVCIS:CSI16:1,2011-12-08T09:00:00Z,29.4012,-89.0355,10.0,6.837,18.0,,'11111222,11111222,99999999' 
WAVCIS,ioos:station:WAVCIS:CSI16:1,2011-12-08T10:00:00Z,29.4012,-89.0355,10.0,4.018,30.0,,'11111222,11111222,99999999' 
WAVCIS,ioos:station:WAVCIS:CSI16:1,2011-12-08T11:00:00Z,29.4012,-89.0355,10.0,4.536,46.0,,'11111222,11111222,99999999' 
WAVCIS,ioos:station:WAVCIS:CSI16:1,2011-12-08T12:00:00Z,29.4012,-89.0355,10.0,3.727,38.0,,'11111222,11111222,99999999' 
WAVCIS,ioos:station:WAVCIS:CSI16:1,2011-12-08T13:00:00Z,29.4012,-89.0355,10.0,4.615,49.0,,'11111222,11111222,99999999' 
WAVCIS,ioos:station:WAVCIS:CSI16:1,2011-12-08T14:00:00Z,29.4012,-89.0355,10.0,3.948,53.0,,'11111222,11111222,99999999' 
WAVCIS,ioos:station:WAVCIS:CSI16:1,2011-12-08T15:00:00Z,29.4012,-89.0355,10.0,4.342,51.0,,'11111222,11111222,99999999' 
WAVCIS,ioos:station:WAVCIS:CSI16:1,2011-12-08T16:00:00Z,29.4012,-89.0355,10.0,4.269,40.0,,'11111222,11111222,99999999' 
WAVCIS,ioos:station:WAVCIS:CSI16:1,2011-12-08T17:00:00Z,29.4012,-89.0355,10.0,3.753,71.0,,'11111222,11111222,99999999' 
WAVCIS,ioos:station:WAVCIS:CSI16:1,2011-12-08T18:00:00Z,29.4012,-89.0355,10.0,2.278,18.0,,'11111222,11111222,99999999' 
WAVCIS,ioos:station:WAVCIS:CSI16:1,2011-12-08T19:00:00Z,29.4012,-89.0355,10.0,2.906,7.0,,'11111222,11111222,99999999' 
WAVCIS,ioos:station:WAVCIS:CSI16:1,2011-12-08T20:00:00Z,29.4012,-89.0355,10.0,2.039,32.0,,'11111222,11111222,99999999' 
WAVCIS,ioos:station:WAVCIS:CSI16:1,2011-12-08T21:00:00Z,29.4012,-89.0355,10.0,3.658,16.0,,'11111222,11111222,99999999' 
WAVCIS,ioos:station:WAVCIS:CSI16:1,2011-12-08T22:00:00Z,29.4012,-89.0355,10.0,3.68,25.0,,'11111222,11111222,99999999' 
WAVCIS,ioos:station:WAVCIS:CSI16:1,2011-12-08T23:00:00Z,29.4012,-89.0355,10.0,3.214,33.0,,'11111222,11111222,99999999' 
WAVCIS,ioos:station:WAVCIS:CSI16:1,2011-12-09T00:00:00Z,29.4012,-89.0355,10.0,5.249,14.0,,'11111222,11111222,99999999' 
WAVCIS,ioos:station:WAVCIS:CSI16:1,2011-12-09T01:00:00Z,29.4012,-89.0355,10.0,3.35,42.0,,'11111222,11111222,99999999' 
WAVCIS,ioos:station:WAVCIS:CSI16:1,2011-12-09T02:00:00Z,29.4012,-89.0355,10.0,4.696,8.0,,'11111222,11111222,99999999' 
WAVCIS,ioos:station:WAVCIS:CSI16:1,2011-12-09T03:00:00Z,29.4012,-89.0355,10.0,3.091,35.0,,'11111222,11111222,99999999' 
WAVCIS,ioos:station:WAVCIS:CSI16:1,2011-12-09T04:00:00Z,29.4012,-89.0355,10.0,2.472,45.0,,'11111222,11111222,99999999' 
WAVCIS,ioos:station:WAVCIS:CSI16:1,2011-12-09T05:00:00Z,29.4012,-89.0355,10.0,2.999,36.0,,'11111222,11111222,99999999' 